www.pogodaiklimat.ru

Погода и климат >> Архив погоды >> Австралия >> Carnarvon Airport


ПОГОДА в Carnarvon Airport

  • Прогноз погоды в Carnarvon Airport
  • Монитор погоды в Carnarvon Airport
  • Климат города

АРХИВ ПОГОДЫ в Carnarvon Airport

Время (UTC), дата Ветер
(напр.,м/с)
 
Видим.   Явления Облачность Т
(С)
Тd
(С)
f
(%)
Тe
(С)
Тes
(С)
Комфортность P
(гПа)
Po
(гПа)
Тmin
(С)
Tmax
(С)
R
(мм)
R24
(мм)
S
(см)
13 14.10 Ю 7 н/о 3/3 1000 м
[]
+19.0 +10.8 59 +19 +19 1018.7 1018.2 +24.9
15 14.10 Ю 6 н/о н/о +18.1 +11.0 63 +18 +18 1018.2 1017.2
16 14.10 Ю 5 н/о н/о +17.4 +10.5 64 +17 +17 1017.9 1017.4
18 14.10 ЮВ 4 н/о н/о +15.7 +10.5 71 +15 +15 1017.5 1016.5
19 14.10 ЮВ 4 н/о н/о +15.2 +10.2 72 +14 +14 1017.4 1016.9
21 14.10 ЮВ 6 н/о н/о +15.1 +9.9 71 +14 +14 1018.0 1017.0
22 14.10 ЮВ 5 н/о н/о +14.7 +9.7 72 +13 +13 1018.6 1018.1
00 15.10 ЮВ 8 н/о н/о +19.2 +8.8 51 +19 +19 1019.6 1018.6
01 15.10 ЮВ 7 21 км ясно +21.4 +7.6 41 +22 +25 комфорт 1019.7 1019.2 +14.7
03 15.10 ЮВ 5 н/о н/о +24.5 +6.7 32 +25 +25 комфорт 1018.9 1017.9
04 15.10 ЮЗ 9 н/о н/о +23.2 +10.9 46 +25 +25 комфорт 1018.3 1017.8
06 15.10 Ю 9 н/о н/о +23.8 +11.5 46 +25 +25 комфорт 1017.4 1016.4
07 15.10 ЮЗ 9 28 км ясно +23.6 +11.0 45 +25 +26 комфорт 1017.2 1016.7
10 15.10 ЮЗ 9 н/о н/о +21.4 +13.6 61 +24 +24 комфорт 1017.4 1016.9
12 15.10 Ю 10 н/о н/о +20.4 +15.2 72 +22 +22 комфорт 1018.1 1017.1
13 15.10 Ю 10 н/о н/о +20.0 +14.4 70 +21 +21 комфорт 1018.5 1018.0 +25.4
15 15.10 Ю 7 н/о н/о +19.0 +14.7 76 +20 +20 1018.4 1017.4
16 15.10 Ю 8 н/о н/о +19.0 +14.7 76 +19 +19 1017.8 1017.3
18 15.10 Ю 7 н/о н/о +18.1 +14.0 77 +18 +18 1016.8 1015.8
19 15.10 Ю 6 н/о н/о +17.7 +14.8 83 +17 +17 1016.6 1016.1
21 15.10 ЮВ 5 н/о н/о +16.3 +14.0 86 +15 +15 1016.5 1015.5
22 15.10 ЮВ 5 н/о н/о +15.8 +12.9 83 +15 +15 1016.9 1016.4
00 16.10 ЮВ 6 н/о н/о +21.1 +10.6 51 +23 +23 комфорт 1017.5 1016.5
01 16.10 ЮВ 5 24 км ясно +24.6 +7.7 34 +25 +29 комфорт 1017.0 1016.5 +15.8
03 16.10 ЮЗ 7 н/о н/о +25.1 +16.3 58 +28 +28 жарко 1015.6 1014.6
04 16.10 ЮЗ 9 н/о н/о +25.5 +16.4 57 +29 +29 душно 1014.9 1014.4
06 16.10 ЮЗ 9 н/о н/о +25.5 +17.7 62 +30 +30 душно 1013.8 1012.8
07 16.10 ЮЗ 8 28 км ясно +25.6 +18.0 63 +30 +32 душно 1013.1 1012.6
09 16.10 ЮЗ 8 н/о н/о +25.0 +16.7 60 +29 +29 душно 1012.7 1011.7
10 16.10 ЮЗ 7 н/о н/о +24.2 +16.7 63 +28 +28 душно 1012.8 1012.3
12 16.10 ЮЗ 7 н/о н/о +22.8 +17.3 71 +28 +28 душно 1013.7 1012.7
13 16.10 Ю 8 н/о н/о +22.1 +17.2 74 +27 +27 душно 1013.8 1013.3 +28.1
15 16.10 Ю 5 н/о н/о +20.7 +16.3 76 +24 +24 комфорт 1013.8 1012.8
16 16.10 Ю 4 н/о н/о +20.0 +16.2 79 +23 +23 комфорт 1013.6 1013.1
18 16.10 Ю 6 н/о н/о +20.5 +17.1 81 +24 +24 комфорт 1012.1 1011.1
19 16.10 Ю 6 н/о н/о +20.3 +16.9 81 +23 +23 комфорт 1011.7 1011.2
21 16.10 ЮЗ 6 н/о н/о +20.1 +17.5 85 +23 +23 комфорт 1011.4 1010.4
22 16.10 ЮЗ 6 н/о н/о +20.2 +18.0 87 +23 +23 комфорт 1011.7 1011.2
00 17.10 ЮЗ 7 н/о н/о +22.3 +18.5 79 +28 +28 душно 1012.8 1011.8
01 17.10 С 6 22 км 3/3
[Cu hum]
+23.0 +18.7 77 +29 +32 очень
душно
1013.0 1012.5 +19.6
03 17.10 ЮЗ 6 н/о н/о +23.5 +18.2 72 +28 +28 душно 1013.0 1012.0
04 17.10 ЮЗ 7 н/о 1/1 300 м
[]
+24.3 +18.0 68 +29 +34 душно 1012.7 1012.2
06 17.10 З 7 н/о н/о +24.6 +16.1 59 +28 +28 душно 1011.3 1010.3
07 17.10 З 8 27 км 3/3
[Cu Sc]
+23.9 +17.6 68 +28 +30 душно 1011.0 1010.5
09 17.10 ЮЗ 8 н/о н/о +22.4 +17.1 72 +27 +27 душно 1011.0 1010.0
10 17.10 ЮЗ 8 н/о 5/5 300 м
[]
+21.3 +16.5 74 +25 +25 комфорт 1011.0 1010.5
12 17.10 ЮЗ 8 н/о н/о +20.1 +16.1 78 +22 +22 комфорт 1011.5 1010.5
13 17.10 ЮЗ 8 н/о 4/4 300 м
[]
+20.1 +15.9 77 +22 +22 комфорт 1011.7 1011.2 +26.1
15 17.10 ЮЗ 6 н/о н/о +19.7 +15.6 77 +21 +21 комфорт 1011.7 1010.7
16 17.10 ЮЗ 7 н/о 6/6 600 м
[]
+20.0 +15.2 74 +22 +22 комфорт 1011.5 1011.0
18 17.10 ЮЗ 7 н/о н/о +20.1 +14.9 72 +22 +22 комфорт 1011.0 1010.0
19 17.10 ЮЗ 6 н/о 6/6 600 м
[]
+20.2 +15.0 72 +22 +22 комфорт 1010.8 1010.3
21 17.10 ЮЗ 5 н/о н/о +20.0 +15.2 74 +22 +22 комфорт 1010.8 1009.8
22 17.10 З 5 н/о 10/10 600 м
[]
+20.5 +15.7 74 +23 +23 комфорт 1011.5 1011.0
00 18.10 ЮЗ 7 н/о н/о +21.6 +17.0 75 +26 +26 душно 1013.3 1012.3
01 18.10 ЮЗ 9 23 км 6/3 600 м
[Sc Ac As]
+22.0 +15.8 68 +26 +26 душно 1013.9 1013.4 +19.4
03 18.10 ЮЗ 9 н/о н/о +23.8 +14.5 56 +26 +26 жарко 1014.8 1013.8
04 18.10 ЮЗ 9 н/о {осадки} н/о +23.7 +12.4 49 +26 +26 жарко 1014.6 1014.1
06 18.10 ЮЗ 10 н/о н/о +23.2 +11.6 48 +26 +26 жарко 1014.4 1013.4
07 18.10 ЮЗ 10 26 км 5/1
[Sc]
+23.8 +13.4 52 +26 +26 жарко 1014.5 1014.0 0.2
09 18.10 ЮЗ 10 н/о н/о +20.8 +12.5 59 +22 +22 комфорт 1015.2 1014.2
10 18.10 Ю 11 н/о 8/8 600 м
[]
+19.6 +12.4 63 +20 +20 1015.7 1015.2
12 18.10 Ю 8 н/о н/о +19.0 +10.3 57 +19 +19 1017.3 1016.3
13 18.10 Ю 9 н/о 1/1 1000 м
[]
+18.3 +10.2 59 +18 +18 1018.0 1017.5 +24.9 0.2
15 18.10 Ю 9 н/о н/о +18.3 +8.6 53 +17 +17 1018.4 1017.4
16 18.10 Ю 9 н/о 9/9 1000 м
[]
+17.8 +7.8 52 +17 +17 1018.5 1018.0
18 18.10 Ю 8 н/о н/о +17.1 +7.5 53 +16 +16 1018.1 1017.1
19 18.10 Ю 8 н/о 10/10 1000 м
[]
+17.5 +8.1 54 +16 +16 1018.0 1017.5 0.2
21 18.10 ЮВ 5 н/о н/о +16.8 +6.6 51 +16 +16 1018.8 1017.8
22 18.10 ЮВ 6 н/о 9/9 1000 м
[]
+16.3 +5.9 50 +15 +15 1019.6 1019.1
00 19.10 ЮВ 8 н/о н/о +19.0 +7.1 46 +19 +19 1021.0 1020.0
01 19.10 ЮВ 8 24 км 3/1
[Cu hum Ac As]
+20.9 +6.8 40 +22 +23 комфорт 1021.4 1020.9 +15.8 0.2
03 19.10 Ю 9 н/о н/о +22.1 +7.9 40 +23 +23 комфорт 1020.4 1019.4
04 19.10 Ю 10 н/о н/о +22.8 +10.3 45 +25 +25 комфорт 1019.6 1019.1
06 19.10 Ю 11 н/о н/о +23.2 +10.6 45 +25 +25 комфорт 1018.2 1017.2
07 19.10 Ю 11 27 км 1/1
[Cu med, cong]
+22.8 +10.3 45 +25 +25 комфорт 1017.7 1017.2
09 19.10 Ю 10 н/о н/о +22.6 +10.7 47 +25 +25 комфорт 1017.5 1016.5
10 19.10 Ю 10 н/о н/о +22.2 +10.7 48 +24 +24 комфорт 1018.0 1017.5
12 19.10 Ю 9 н/о н/о +20.2 +13.9 67 +22 +22 комфорт 1019.1 1018.1
13 19.10 Ю 9 н/о н/о +19.5 +13.0 66 +20 +20 1019.4 1018.9 +24.0
15 19.10 Ю 9 н/о н/о +18.5 +13.1 71 +18 +18 1019.3 1018.3
16 19.10 Ю 8 н/о н/о +18.4 +13.7 74 +18 +18 1018.8 1018.3
18 19.10 Ю 8 н/о н/о +17.4 +12.3 72 +16 +16 1017.7 1016.7
19 19.10 Ю 8 н/о н/о +17.1 +12.4 74 +16 +16 1017.5 1017.0
21 19.10 Ю 7 н/о н/о +16.2 +11.8 75 +15 +15 1017.9 1016.9
22 19.10 ЮВ 6 н/о н/о +15.6 +11.0 74 +14 +14 1018.5 1018.0
00 20.10 ЮВ 8 н/о н/о +19.3 +9.8 54 +19 +19 1019.2 1018.2
01 20.10 Ю 7 н/о н/о +21.6 +9.8 47 +23 +23 комфорт 1019.4 1018.9 +15.4
03 20.10 Ю 9 н/о н/о +22.0 +14.4 62 +25 +25 комфорт 1018.4 1017.4
04 20.10 Ю 9 н/о н/о +22.3 +14.4 61 +26 +26 жарко 1017.9 1017.4
06 20.10 ЮЗ 9 н/о н/о +23.9 +13.7 53 +26 +26 жарко 1016.4 1015.4
07 20.10 ЮЗ 9 н/о н/о +25.1 +13.6 49 +27 +27 жарко 1016.0 1015.5
09 20.10 ЮЗ 10 н/о н/о +23.0 +15.6 63 +27 +27 душно 1016.2 1015.2
10 20.10 Ю 10 н/о н/о +21.5 +16.0 71 +25 +25 комфорт 1016.7 1016.2
12 20.10 Ю 10 н/о н/о +19.9 +15.7 77 +21 +21 комфорт 1018.2 1017.2
13 20.10 Ю 10 н/о н/о +19.3 +15.4 78 +20 +20 1018.6 1018.1 +25.3
15 20.10 Ю 9 н/о н/о +18.7 +15.4 81 +19 +19 1018.4 1017.4
16 20.10 Ю 10 н/о н/о +18.4 +14.7 79 +18 +18 1018.2 1017.7
18 20.10 Ю 10 н/о н/о +18.1 +13.8 76 +17 +17 1017.8 1016.8
19 20.10 Ю 9 н/о 8/8 600 м
[]
+18.1 +13.6 75 +17 +17 1017.6 1017.1
21 20.10 Ю 6 н/о н/о +18.3 +13.8 75 +18 +18 1018.3 1017.3
22 20.10 ЮВ 7 н/о 9/9 600 м
[]
+18.2 +13.1 72 +18 +18 1018.9 1018.4
00 21.10 ЮВ 10 н/о н/о +19.9 +12.2 61 +21 +21 комфорт 1020.0 1019.0
01 21.10 Ю 9 н/о 5/5 600 м
[]
+21.4 +12.3 56 +24 +24 комфорт 1020.2 1019.7 +17.9
03 21.10 Ю 9 н/о н/о +23.4 +11.8 48 +26 +26 жарко 1019.2 1018.2
04 21.10 Ю 9 н/о н/о +24.4 +13.0 49 +26 +26 жарко 1018.4 1017.9
06 21.10 Ю 9 н/о н/о +23.2 +13.7 55 +27 +27 душно 1017.4 1016.4
07 21.10 Ю 8 н/о н/о +22.9 +14.2 58 +26 +26 жарко 1017.0 1016.5
09 21.10 Ю 10 н/о н/о +22.2 +14.6 62 +26 +26 душно 1016.6 1015.6
10 21.10 Ю 11 н/о н/о +21.1 +15.0 68 +24 +24 комфорт 1016.5 1016.0
12 21.10 Ю 9 н/о н/о +20.2 +14.6 70 +22 +22 комфорт 1017.7 1016.7

 

Местоположение метеостанции Carnarvon Airport (Западная Австралия, Австралия): широта -24.88 долгота 113.66 высота над уровнем моря 8 м.

В архиве по умолчанию представлена погода в Carnarvon Airport за последнюю неделю. Архивные данные за месяц целиком и за предыдущие месяцы, начиная с января 2011 года, Вы можете получить, выбрав интересующий диапазон дат из раскрывающегося списка и нажав кнопку "Ввод!".


*Определитесь, кто Вы:
робот инопланетянин человек

Внимание! Время в таблицах - всемирное. Для получения местного времени необходимо прибавить поправку, которая в Carnarvon Airport равна 8 ч.

Смотрите также архив погоды в соседних городах и на ближайших метеорологических станциях:

Погода в Shark Bay Airport (Западная Австралия, Австралия) (114 км)
Погода в Learmonth Airport (Западная Австралия, Австралия) (298 км)
Погода в Onslow Airport (Западная Австралия, Австралия) (387 км)
Погода в Thevenard Island (Западная Австралия, Австралия) (406 км)
Погода в Geraldton Airport (Западная Австралия, Австралия) (448 км)
Погода в Paraburdoo Aero (Западная Австралия, Австралия) (457 км)
Погода в Mardie (Западная Австралия, Австралия) (475 км)
Погода в Barrow Island Airport (Западная Австралия, Австралия) (479 км)
Погода в Varanus Island (Западная Австралия, Австралия) (510 км)
Погода в Meekatharra Airport (Западная Австралия, Австралия) (526 км)

Пояснения к столбцам:

Ветер - указаны скорость ветра в м/с - средняя за 10 мин, порывы в срок и между сроками (в фигурных скобках) и направление, откуда дует ветер: С - северный, СВ - северо-восточный, В - восточный, ЮВ - юго-восточный, Ю - южный, ЮЗ - юго-западный, З - западный, СЗ - северо-западный.
Видимость - горизонтальная дальность видимости в метрах или километрах. При видимости от 1 до 10 км при отсутствии осадков обычно наблюдается дымка, при ухудшении видимости до 1 км и менее - туман. В сухую погоду видимость может ухудшаться дымом, пылью или мглою.
Явления - указаны атмосферные явления, наблюдавшиеся в срок или в последний час перед сроком; фигурными скобками обозначены явления, наблюдавшиеся между сроками (за 1-3 часа до срока); квадратными скобками обозначены град или гололедные отложения с указанием их диаметра в мм.
Облачность - указаны через наклонную черту общая и нижняя облачность в баллах и высота нижней границы облаков в метрах; квадратными скобками обозначены формы облаков: Ci - перистые, Cs - перисто-слоистые, Cc - перисто-кучевые, Ac - высококучевые, As - высокослоистые, Sc - слоисто-кучевые, Ns - слоисто-дождевые, Cu - кучевые, Cb - кучево-дождевые. Подробнее классификацию облаков см. в Атласе облаков (PDF).
T - Температура воздуха - температура, измеренная на высоте 2 м над землей.
Td - Температура точки росы - температура, при понижении до которой содержащийся в воздухе водяной пар достигнет насыщения.
f - Относительная влажность воздуха - влажноcть воздуха, измеренная на высоте 2 м над землей.
Te - Эффективная температура - температура, которую ощущает одетый по сезону человек в тени. Характеристика душности погоды. При расчете учитывается влияние влажности воздуха и скорости ветра на теплоощущения человека.
Tes - Эффективная температура на солнце - температура, которую ощущает человек, с поправкой на солнечный нагрев. Характеристика знойности погоды. Зависит от высоты солнца над горизонтом, облачности и скорости ветра. Ночью, в пасмурную погоду, а также при ветре 12 м/с и более поправка равна нулю.
P - Атмосферное давление - приведенное к уровню моря атмосферное давление.
Po - Атмосферное давление - измеренное на уровне метеостанции атмосферное давление.
Tmin - Минимальная температура - минимум температуры воздуха на высоте 2 м над землей.
Tmax - Максимальная температура - максимум температуры воздуха на высоте 2 м над землей.
R - Количество осадков - Количество выпавших осадков за период времени, мм. При наведении курсора мыши на число - период времени, за который выпало указанное количество осадков.
R24 - Количество осадков - Количество выпавших осадков за 24 часа, мм.
S - Снежный покров - Высота снежного покрова, см. При наведении курсора мыши на число - состояние снежного покрова и степень покрытия местности в баллах.